Regional Weather Roundup
Issued by NWS Green Bay, WI

Home | Current Version | Previous Version | Graphics & Text | Print | Product List | Glossary Off
Versions: 1 2 3 4 5 6 7 8 9 10 11 12 13 14 15 16 17 18 19 20 21 22 23 24 25 26 27 28 29 30 31 32 33 34 35 36 37 38 39 40 41 42 43 44 45 46 47 48 49 50

000
ASUS43 KGRB 250700
RWRGRB

NORTH-CENTRAL AND NORTHEAST WISCONSIN REGIONAL WEATHER ROUNDUP
NATIONAL WEATHER SERVICE GREEN BAY WI
100 AM CST SAT FEB 25 2017

WIZ005-009-010>012-018-019-250800-
NORTH CENTRAL WISCONSIN

CITY           SKY/WX    TMP DP  RH WIND       PRES   REMARKS
IRONWOOD       LGT SNOW  16  13  88 N10       29.71F FOG     WCI   4
MANITOWISH WTR NOT AVBL
ARBOR VITAE    NOT AVBL
EAGLE RIVER    NOT AVBL
LAND O LAKES   NOT AVBL
RHINELANDER    LGT SNOW  17  12  80 NW10      29.62F WCI   5
PHILLIPS       NOT AVBL
ANTIGO         NOT AVBL
TOMAHAWK       NOT AVBL
MERRILL        NOT AVBL
$$

WIZ013-073-250800-
NORTHEAST WISCONSIN

CITY           SKY/WX    TMP DP  RH WIND       PRES   REMARKS
IRON MOUNTAIN  CLOUDY    19  12  74 NW17      29.56S WCI   4
MARINETTE      MIX PCPN  22  19  89 N15       29.55F FOG     WCI   9
$$

WIZ017-030-035>037-045-250800-
CENTRAL WISCONSIN

CITY           SKY/WX    TMP DP  RH WIND       PRES   REMARKS
MEDFORD        NOT AVBL
WAUSAU         CLOUDY    18  12  77 NW12G20   29.62F WCI   5
MOSINEE        NOT AVBL
MARSHFIELD     LGT SNOW  17  11  77 NW20      29.66S WCI   1
WISC RAPIDS    LGT SNOW  19  15  84 NW10      29.67S FOG     WCI   7
STEVENS POINT  NOT AVBL
WAUPACA        NOT AVBL
SHAWANO        FLURRIES  23  17  78 CALM      29.60F
CLINTONVILLE   NOT AVBL
WAUTOMA        LGT SNOW  20  17  88 NW9       29.65S FOG     WCI   9
$$

WIZ038-039-048-051-250800-
FOX VALLEY

CITY           SKY/WX    TMP DP  RH WIND       PRES   REMARKS
NWS GREEN BAY  CLOUDY    22  20  92 NW12      29.57F
APPLETON       NOT AVBL
OSHKOSH        LGT SNOW  21  17  84 NW13      29.60S FOG     WCI   9
FOND DU LAC    LGT SNOW  22  17  81 NW14      29.61R WCI   9
$$

WIZ022-050-052-250800-
EAST CENTRAL WISCONSIN

CITY           SKY/WX    TMP DP  RH WIND       PRES   REMARKS
EPHRAIM        NOT AVBL
WASHINGTON ISL NOT AVBL
STURGEON BAY   MIX PCPN  23  21  92 MISG      29.53F FOG
MANITOWOC      NOT AVBL
SHEBOYGAN      LGT SNOW  23  20  88 NW13      29.57R FOG
$$

LMZ563-521-522-541>543-250800-
LAKESHORE

STATION/POSITION TIME  TEMP    WIND        PRES    VSBY  WAVE
                       AIR SEA DIR/SP/G                  HT/PER
                 (UTC) (F)     (DEG/KT/KT) (MB)    (MI)  (FT/S)
SHEBOYGAN LKSHOR 0600   25     320/  5/  6 1001.6F
KEWAUNEE LKSHORE 0630   23     320/ 13/ 20 1000.3R
NORTHPORT PIER   0640   27     330/  4/  5  999.7F
SISTER BAY LKSHO 0605   26        CALM       N/A
CHAMBERS ISLAND  0630   24     300/  3/  4 1000.0F
MENOMINEE LKSHOR 0630   22     300/ 13/ 24 1000.6R
$$




USA.gov is the U.S. government's official web portal to all federal, state and local government web resources and services.